GFSWCAN_500_rhum_150.txt.gz
RH
85 80 86 79 76 72 72 76 68 67 59 56 54 52 49 54 57 47 44 39 36 34 36 36 37 48 50 62 72 59 54 64 51 40 42 50 50 46 46 31 29 31 34 33 34 29 23 18 15 14 13 15 14 11
84 84 78 74 75 81 80 77 72 71 69 63 65 65 55 56 66 58 54 48 42 40 42 38 39 35 47 60 78 78 64 51 57 60 49 52 58 71 71 81 86 83 76 73 64 51 59 58 41 38 36 32 22 15
85 76 74 74 67 63 83 80 72 71 67 67 70 72 69 61 62 76 73 65 57 50 48 48 56 48 49 70 64 82 84 80 62 56 73 78 79 88 87 92 86 73 64 82 81 57 57 63 63 65 56 48 38 22
89 76 77 66 63 58 59 62 63 65 77 73 69 69 69 72 68 67 67 70 84 76 66 65 63 63 72 80 86 82 95 91 87 95 78 78 73 73 85 88 83 77 72 68 75 85 89 78 71 67 66 64 56 32
69 68 54 59 50 38 38 36 39 40 48 71 67 55 57 64 73 78 76 73 68 62 72 76 80 78 82 87 91 93 99 100 100 96 99 96 95 99 90 82 72 90 91 89 87 79 71 66 66 57 52 38 27 23
79 86 76 55 40 43 32 22 17 18 24 36 36 52 60 65 70 76 77 82 88 94 86 74 68 86 100 100 100 100 99 98 99 99 99 94 96 100 89 77 82 91 86 87 82 73 64 52 45 39 34 31 29 28
20 4 2 2 3 3 3 4 4 5 6 10 19 22 23 48 64 71 68 72 88 98 100 94 88 82 89 100 100 100 99 100 100 97 97 100 100 100 92 76 96 96 97 97 91 71 61 56 50 45 39 35 31 28
2 2 2 2 1 1 2 2 2 2 2 2 3 3 5 7 11 18 25 32 38 60 84 88 71 69 100 100 100 100 95 98 88 97 94 100 100 99 86 92 100 100 100 100 100 94 87 83 82 76 68 50 38 35
3 3 2 2 2 2 2 2 2 2 2 2 2 2 2 2 4 11 17 17 28 41 57 42 62 97 99 100 100 100 100 99 91 77 88 100 95 83 92 99 100 100 100 98 98 98 91 78 58 52 48 43 40 37
4 4 4 4 4 4 3 3 3 3 2 2 2 2 2 3 5 7 20 26 26 58 76 59 100 100 97 94 92 100 95 96 89 83 91 87 75 84 90 94 96 95 92 86 82 81 76 67 55 49 46 39 32 22
3 3 4 4 4 4 4 4 4 4 4 4 4 4 3 3 4 5 8 4 9 17 37 68 93 96 98 98 91 85 89 91 84 79 84 73 65 73 92 94 91 91 89 82 74 67 62 57 51 43 35 28 17 9
3 3 3 3 3 3 3 3 3 4 4 4 4 5 5 6 7 8 6 9 17 19 26 44 59 87 89 84 73 66 76 78 70 75 76 61 60 75 77 82 77 71 72 71 65 56 50 44 35 28 16 7 6 6
5 5 5 5 5 4 4 5 4 4 5 5 4 5 6 14 16 16 22 27 33 42 50 53 51 52 58 66 72 78 77 72 70 70 72 71 74 75 70 61 54 52 44 38 33 28 22 14 9 8 7 7 7 7
9 8 8 10 11 13 14 13 12 12 12 9 11 11 10 14 17 22 22 25 32 32 36 40 50 46 50 54 56 60 56 59 59 56 52 50 43 38 37 34 27 22 19 17 14 12 11 11 11 11 12 12 11 11
20 24 26 28 32 35 36 33 29 28 24 23 20 18 20 29 31 30 30 30 31 32 33 32 34 33 31 32 28 27 28 26 26 28 38 29 23 22 22 22 23 22 18 20 20 23 30 35 40 29 31 23 22 22
49 48 60 68 66 62 53 46 40 39 35 30 25 29 44 56 57 53 60 61 63 61 52 48 49 44 41 42 34 34 39 34 38 39 36 32 34 45 52 54 39 26 19 21 25 38 96 100 100 97 60 72 46 32
61 75 100 92 95 90 77 72 69 64 51 36 45 80 99 94 99 100 97 93 94 82 70 69 57 54 37 31 22 20 24 33 38 44 53 58 51 38 35 30 24 25 30 34 35 43 60 100 100 100 85 82 51 34
91 98 98 99 100 100 94 86 84 73 50 71 93 99 91 97 94 75 76 80 86 92 95 82 72 59 47 35 33 49 62 57 47 39 31 24 23 23 26 30 31 32 31 31 32 34 31 33 34 31 27 26 28 28
100 100 100 100 100 100 100 100 90 64 62 77 67 70 62 62 64 64 62 66 74 79 77 69 72 50 54 65 62 60 56 56 50 32 28 24 36 48 57 52 53 48 45 40 36 33 29 27 27 26 28 25 21 18
93 98 100 100 100 100 100 95 74 60 52 54 61 65 70 53 61 63 78 85 88 82 83 78 63 66 69 64 78 87 81 76 71 59 58 53 67 68 62 56 45 37 33 32 32 32 30 25 25 30 35 35 28 24
93 94 100 100 100 100 92 73 64 70 80 88 80 70 62 74 70 77 88 100 100 77 83 87 100 83 90 100 96 86 75 66 82 83 68 58 52 51 50 58 72 54 47 43 39 28 27 26 26 30 34 43 59 44
100 100 100 100 100 100 100 100 100 93 93 92 81 81 86 80 74 86 98 56 44 64 89 87 89 100 92 83 67 68 65 71 75 59 54 66 75 75 77 70 63 58 86 96 100 84 67 55 43 42 55 81 77 60
99 94 89 98 100 100 100 100 100 99 100 98 98 100 100 100 99 77 37 29 31 51 96 100 100 100 85 68 61 62 80 94 63 62 68 68 68 64 65 61 62 63 91 100 100 96 96 88 79 92 100 100 80 64
96 93 100 100 100 100 96 100 100 100 100 100 100 100 100 98 58 33 25 37 51 66 82 93 100 94 85 82 75 67 63 79 64 66 73 79 63 53 74 86 92 67 74 94 92 98 100 100 95 90 86 75 57 57
96 100 100 100 100 99 100 100 99 98 81 100 100 96 65 50 45 42 32 38 58 78 92 99 100 100 80 60 54 45 46 58 70 75 62 80 70 67 58 71 89 62 54 70 86 96 92 91 86 82 76 65 55 50
42 39 39 50 75 94 97 94 88 73 59 57 58 61 62 64 44 26 44 70 72 72 76 82 80 72 62 71 60 55 62 75 79 77 76 84 81 79 81 97 91 58 65 58 75 90 97 78 68 66 58 53 53 57
31 38 36 33 40 46 48 48 54 58 58 60 59 64 62 37 32 41 62 70 75 81 81 70 63 62 61 58 62 68 72 78 83 73 67 70 79 86 96 96 88 64 64 64 60 54 58 64 73 83 68 66 66 60
98 90 70 61 47 44 40 40 42 48 54 58 57 46 39 46 44 52 55 67 70 59 54 53 59 67 65 64 65 71 78 84 85 84 72 64 69 69 72 72 56 51 52 47 70 82 80 76 85 97 84 69 68 67
64 64 72 77 68 68 72 74 62 59 58 49 48 54 57 62 83 95 89 92 100 99 86 73 62 77 76 80 91 90 68 59 62 73 84 91 99 100 100 92 91 84 75 69 65 59 64 76 100 100 84 69 67 66
100 100 96 82 88 93 87 70 65 66 68 71 73 75 73 95 100 99 94 80 87 89 88 83 80 76 64 57 57 67 88 98 94 87 77 81 91 100 100 100 100 100 93 79 70 71 74 80 85 82 78 65 64 66
86 82 79 80 77 100 100 94 93 93 89 92 96 77 73 96 82 100 100 96 80 90 88 77 73 69 74 89 91 85 94 100 100 100 100 100 100 100 100 96 97 100 100 99 84 87 94 91 83 78 68 62 64 68
94 99 100 93 98 100 100 100 79 68 79 70 76 84 87 92 91 89 90 75 83 99 100 94 95 100 100 100 100 100 98 99 100 100 100 100 100 100 100 100 100 100 100 100 100 97 93 91 85 80 79 77 74 61
94 94 90 93 100 98 98 80 61 60 71 91 98 100 100 100 99 73 75 86 100 100 100 100 100 99 100 100 100 100 100 100 100 100 100 100 100 100 99 100 100 100 100 100 95 83 85 83 75 56 42 39 34 35

GFSWCAN_500_rhum_153.txt.gz
RH
71 71 65 63 69 77 74 77 73 65 59 58 55 60 65 62 63 64 60 59 54 48 49 45 42 41 41 43 41 40 50 59 57 58 55 54 57 51 48 50 50 54 63 47 40 48 54 64 68 63 55 52 42 38
80 75 73 67 67 65 76 71 70 61 61 57 57 59 66 73 68 68 67 61 57 54 53 52 55 49 45 49 51 47 52 57 70 77 73 71 67 61 64 55 53 58 68 77 84 86 88 93 85 87 86 56 53 82
99 98 86 84 86 87 88 92 84 71 66 60 62 62 56 60 69 69 70 66 62 53 56 58 61 67 58 58 55 57 66 68 66 71 70 75 84 83 74 65 68 75 78 84 95 100 97 94 94 84 82 80 81 85
93 99 96 91 96 97 96 99 97 85 74 73 64 61 60 57 58 57 57 66 64 62 53 55 68 68 72 71 71 77 79 83 88 89 83 74 79 82 85 97 90 93 90 92 88 89 98 96 95 92 92 88 81 76
90 83 82 87 88 85 82 78 92 91 86 75 68 64 59 50 40 41 41 42 57 55 44 42 56 70 74 77 79 79 77 79 88 89 90 85 84 94 85 84 78 100 100 97 93 100 94 90 94 89 83 83 78 74
100 100 100 98 99 98 95 89 74 77 82 68 68 66 42 37 34 30 25 31 33 35 36 37 34 55 76 93 100 98 100 100 100 86 87 95 100 100 96 81 85 100 100 100 100 98 98 94 92 90 89 93 87 77
100 100 100 100 100 99 94 93 88 81 78 60 51 38 28 34 24 12 10 12 17 22 18 18 21 29 42 56 68 81 98 100 100 99 98 100 100 100 93 80 98 95 100 100 99 100 99 99 94 100 99 100 100 100
88 98 100 100 100 99 95 89 55 20 8 3 2 2 2 2 3 2 3 3 3 5 5 5 4 7 20 33 48 63 57 60 60 69 65 72 91 100 86 85 100 100 100 100 100 98 90 94 97 95 97 100 100 100
3 6 10 19 22 49 73 64 36 21 8 3 2 2 2 2 2 2 2 2 2 2 2 2 2 6 7 15 27 46 50 51 53 56 88 95 87 73 90 100 100 100 95 93 96 99 100 100 100 100 100 100 98 93
4 4 3 4 4 3 3 3 3 3 3 3 3 3 3 3 3 3 2 2 2 3 2 2 7 7 14 15 14 26 35 64 52 48 80 70 57 76 99 100 99 95 90 87 89 91 90 89 85 84 82 78 75 71
4 4 4 4 4 4 4 4 4 4 4 4 4 4 4 4 4 4 4 4 4 4 4 4 6 6 9 8 12 16 14 25 26 40 63 54 44 63 88 96 96 93 88 84 79 72 71 74 78 74 71 70 68 59
3 3 3 3 3 3 3 3 3 3 3 4 4 4 4 4 4 5 4 6 6 7 8 9 9 10 12 15 20 18 21 21 19 26 32 22 39 51 60 73 77 78 79 80 77 77 77 73 68 62 57 53 45 38
3 4 4 3 3 3 3 3 3 3 3 3 3 3 4 6 7 9 10 9 10 10 10 13 15 15 18 18 18 22 25 27 32 37 38 52 46 46 51 52 50 52 54 51 46 45 42 39 34 32 31 24 18 15
10 8 8 7 6 6 6 6 5 4 4 4 5 5 7 11 12 15 16 14 16 18 18 18 19 17 21 22 23 20 24 31 30 22 22 28 23 24 28 26 23 23 23 24 22 20 21 21 20 19 18 17 14 12
19 14 12 11 12 18 18 13 12 16 16 14 14 16 17 29 33 32 30 30 29 30 32 35 35 31 35 41 36 35 40 32 33 39 43 50 48 50 47 41 39 42 35 25 29 24 21 23 21 20 22 21 18 17
24 17 15 22 31 35 33 34 30 34 36 30 25 34 44 47 49 46 46 46 57 64 62 63 59 56 51 52 46 48 46 40 43 60 74 74 59 53 35 28 25 30 53 74 91 96 98 74 56 33 21 21 26 28
26 23 63 80 82 79 64 56 60 59 41 25 43 62 65 64 66 75 98 100 94 88 70 57 48 43 38 29 18 23 30 37 40 51 43 37 30 26 28 31 30 30 33 36 38 34 33 30 27 25 21 19 20 19
51 100 98 99 95 93 81 80 82 66 43 65 79 100 100 100 100 87 72 64 72 66 60 56 62 59 61 40 31 38 42 56 62 54 48 47 42 41 34 35 29 27 30 36 44 51 62 67 65 55 41 35 32 26
100 100 100 100 100 100 98 92 73 44 58 68 71 82 100 99 75 71 69 70 73 89 79 65 70 62 49 49 45 39 56 71 63 64 58 50 35 39 61 61 72 85 85 82 83 76 58 44 38 35 32 30 26 25
100 100 100 100 100 99 88 71 57 47 50 56 57 60 62 65 64 61 70 81 92 93 84 92 83 59 46 38 52 54 76 88 76 50 40 43 51 60 82 82 81 77 73 64 52 52 54 45 54 69 55 46 30 25
100 100 100 100 99 94 86 68 53 48 52 54 62 64 62 62 70 100 100 100 91 72 89 98 77 36 30 32 70 71 75 64 49 57 55 48 52 67 65 67 60 51 60 62 68 76 86 76 86 81 80 72 66 50
98 100 100 100 100 99 87 77 97 100 89 81 74 98 100 98 100 100 100 87 73 84 100 81 41 35 40 39 44 49 44 48 50 50 50 60 52 53 60 63 64 56 60 69 90 100 99 93 99 93 87 90 100 100
100 100 100 100 98 100 100 94 100 99 92 90 79 84 97 100 100 100 95 81 87 100 84 65 51 52 42 31 27 31 42 47 41 42 44 47 56 62 71 69 69 65 62 76 100 100 94 91 100 99 84 94 100 97
100 98 100 100 100 100 85 97 91 76 94 100 100 100 100 100 100 100 90 93 90 67 62 59 51 43 43 41 40 40 49 52 44 46 54 57 58 65 79 75 74 84 93 94 96 100 100 78 91 100 90 84 90 88
100 100 100 93 78 76 84 94 93 82 94 100 100 100 99 100 98 79 57 53 58 57 53 57 63 65 63 58 57 57 62 62 54 49 52 62 72 81 82 93 98 93 99 96 91 100 100 90 72 94 97 82 72 66
78 80 79 79 88 93 100 100 100 100 100 100 98 96 92 79 54 37 41 53 61 73 80 72 65 62 62 67 60 54 53 60 58 56 63 76 94 97 87 72 64 73 100 100 98 99 100 100 66 60 78 87 80 77
54 49 46 54 64 71 71 73 57 35 28 36 45 47 44 39 46 58 65 79 83 78 76 78 80 84 83 74 72 68 67 71 75 74 71 72 74 81 77 91 93 85 97 92 86 74 68 80 70 54 58 63 66 76
37 32 31 32 30 36 45 53 53 51 46 44 46 47 50 61 55 86 89 67 63 70 71 83 95 100 82 67 64 63 62 64 56 54 53 61 76 95 100 97 82 93 100 100 100 99 79 64 70 64 54 58 81 87
91 95 91 91 66 62 62 56 56 66 60 56 54 57 58 66 84 72 55 76 80 86 99 100 100 100 100 97 74 52 45 52 62 65 73 84 100 100 100 100 100 100 100 100 100 100 100 100 87 82 81 77 76 79
100 97 82 72 71 75 91 66 64 74 69 70 71 63 65 76 87 86 82 74 81 89 90 91 93 81 71 68 75 92 99 96 96 92 84 83 90 100 100 100 100 100 100 100 100 100 100 100 91 77 77 80 82 81
80 81 84 86 90 100 98 94 74 56 59 66 72 72 72 70 62 95 85 81 69 74 80 83 90 87 84 92 94 94 100 100 100 100 100 100 100 100 100 100 100 100 100 100 100 100 100 100 98 95 80 65 56 55
97 90 80 73 77 76 67 60 56 62 74 76 84 92 93 96 82 93 90 70 69 90 96 95 98 100 100 100 98 97 96 98 100 100 100 100 100 100 100 100 82 91 100 100 99 100 100 98 84 80 73 63 53 46
87 96 98 95 98 95 95 85 72 67 77 84 83 91 100 99 94 79 76 70 87 100 100 99 100 100 100 97 96 100 100 100 100 100 100 100 96 38 17 20 26 28 70 95 98 91 84 64 52 51 50 44 38 34

GFSWCAN_500_rhum_156.txt.gz
RH
66 65 62 62 59 68 69 64 57 58 56 56 55 54 52 58 64 53 45 42 40 40 46 48 52 50 47 50 47 43 47 53 47 44 40 40 37 40 39 42 58 62 60 52 51 54 55 54 54 58 59 62 66 72
74 68 65 63 64 69 65 70 69 64 63 56 58 54 60 60 58 64 63 51 47 41 46 48 50 48 46 48 47 47 49 51 49 50 48 44 41 42 50 51 64 72 73 77 76 70 64 65 72 75 84 86 78 76
85 82 79 74 76 79 78 78 78 76 72 69 71 70 71 63 67 56 64 63 62 58 53 55 56 53 47 51 48 44 48 57 56 59 60 61 57 56 58 59 74 80 88 86 93 97 98 96 90 85 77 71 77 81
87 84 86 92 93 91 97 100 90 89 86 80 84 75 72 74 82 63 58 59 58 58 59 52 50 46 47 52 55 48 44 48 57 66 68 69 69 65 64 71 73 86 99 100 99 100 98 95 97 96 87 83 77 80
100 100 100 96 92 92 96 95 99 98 96 95 90 83 78 74 74 74 69 67 70 68 58 55 49 45 45 43 49 49 43 47 57 61 65 68 76 94 87 81 69 94 99 100 93 100 98 98 100 99 98 96 95 91
100 100 100 100 97 98 94 90 86 86 83 84 84 88 90 94 92 86 85 82 72 65 61 54 46 40 34 35 36 40 43 35 36 43 48 53 74 100 100 82 88 100 100 100 100 100 100 100 100 100 98 100 100 100
100 97 100 100 100 100 100 99 96 96 95 94 91 90 95 92 96 99 88 72 62 51 43 41 37 29 14 12 20 20 18 20 20 23 24 34 46 65 79 59 80 100 100 100 97 100 100 100 99 98 90 90 99 100
100 100 100 100 100 100 100 100 100 100 100 100 100 100 99 100 85 53 46 43 24 12 7 6 7 4 3 3 3 4 5 6 12 21 15 18 35 46 35 41 90 100 98 98 93 87 81 82 82 82 88 97 100 100
38 77 84 75 94 95 96 99 100 100 100 100 100 100 100 99 87 49 37 26 17 14 14 12 3 1 1 2 2 2 2 2 5 6 8 14 14 20 39 95 98 100 91 87 85 79 75 82 94 100 100 100 100 100
27 17 24 22 12 8 33 58 55 38 68 83 82 79 59 40 26 15 9 8 5 3 3 2 2 2 4 4 4 3 3 5 4 3 6 6 8 40 88 87 92 94 95 85 77 74 76 77 80 84 90 93 90 87
4 4 4 4 4 4 4 4 4 4 4 4 4 4 4 4 4 4 4 4 4 3 3 3 4 4 5 5 5 5 6 6 4 6 12 12 11 28 33 33 35 37 43 49 55 58 62 72 82 86 87 83 78 72
3 3 3 3 3 3 3 3 4 4 4 4 4 4 4 4 4 4 4 4 4 5 4 4 4 5 7 7 7 8 8 7 7 9 11 10 14 18 24 31 38 48 58 63 69 71 77 78 77 76 76 78 80 82
3 2 2 2 2 3 3 3 3 3 3 3 3 3 3 4 5 6 8 9 9 10 8 9 8 8 12 14 13 12 11 11 11 11 12 14 15 16 15 23 25 29 30 35 40 48 54 58 62 63 62 65 60 54
5 5 4 4 4 4 5 5 4 4 4 4 4 4 5 5 6 10 13 13 13 12 12 15 16 16 20 21 20 17 20 19 23 28 32 47 73 89 55 45 38 34 32 27 27 27 27 27 33 24 28 29 27 28
12 12 12 11 10 8 9 8 8 7 7 9 8 8 8 14 30 32 27 26 26 27 28 29 28 29 31 33 31 34 42 37 41 50 60 71 72 56 38 33 32 32 34 37 47 56 63 60 56 63 61 52 46 40
64 58 28 15 16 19 20 16 13 11 15 17 8 23 37 41 46 45 44 43 46 49 51 51 50 55 55 56 51 44 40 36 35 44 44 41 36 33 33 34 32 31 36 42 42 42 46 52 61 52 45 65 92 91
99 76 70 47 42 36 28 26 30 30 21 13 43 64 64 64 65 68 66 63 61 64 75 69 55 46 44 43 43 42 37 34 34 27 22 20 26 30 35 30 26 25 37 40 32 26 23 23 25 25 26 28 31 31
100 100 100 72 77 62 53 63 61 47 39 63 74 84 87 87 90 88 85 85 100 84 58 58 53 42 66 62 49 53 52 41 30 25 18 19 23 23 29 34 41 52 54 57 47 50 61 72 84 82 72 57 46 37
100 100 100 100 99 100 97 96 81 62 76 86 97 100 100 96 97 100 100 100 85 72 67 56 53 62 93 84 78 54 49 37 26 22 18 18 25 39 53 53 56 74 68 67 74 85 89 84 68 58 58 46 43 38
100 100 100 100 100 100 94 70 62 68 72 78 85 90 83 87 92 90 100 100 90 73 72 66 67 84 100 82 80 62 45 30 24 21 19 25 38 48 47 63 62 63 70 64 68 70 65 63 73 93 88 90 90 59
100 93 92 95 94 96 95 73 62 58 60 61 74 73 68 72 81 87 88 93 89 87 78 83 100 100 96 95 84 60 38 33 36 41 39 29 30 37 40 49 61 62 71 73 68 64 74 79 90 92 100 83 94 66
100 98 98 84 80 90 80 63 66 71 68 72 57 60 57 76 95 100 100 100 93 88 100 100 100 94 100 87 52 42 41 41 45 48 49 45 39 38 42 48 57 63 72 78 81 83 70 62 76 92 93 98 76 60
100 100 100 100 100 100 95 81 85 74 69 81 100 79 63 69 67 65 52 49 58 99 100 100 100 100 68 45 44 47 52 56 48 49 54 47 41 43 45 48 58 67 65 64 72 63 66 76 83 91 91 92 97 58
89 100 100 100 100 99 86 83 73 63 71 78 75 83 84 80 80 73 42 41 89 100 100 99 72 51 49 55 55 57 60 67 56 54 70 54 41 43 48 51 57 59 64 63 77 90 87 84 95 97 99 100 100 91
100 100 100 100 100 100 81 64 88 100 100 100 79 74 78 78 72 64 36 64 81 72 60 52 50 58 56 55 58 57 64 69 61 41 42 52 48 45 43 47 50 60 86 100 92 81 87 100 100 100 98 96 100 100
100 98 91 69 81 99 84 91 100 100 98 85 72 65 73 70 55 40 53 57 55 60 64 63 66 67 68 79 74 76 77 89 76 58 58 68 57 57 53 52 56 68 100 96 92 91 100 100 100 100 97 85 98 100
87 70 61 61 65 81 98 98 83 69 62 54 40 37 38 48 52 56 62 61 51 61 65 71 88 98 100 100 100 100 94 93 79 51 45 49 54 65 74 71 67 72 81 87 97 100 96 100 100 100 100 96 86 94
54 65 76 76 66 55 49 42 36 39 43 47 53 61 58 56 54 56 55 62 68 65 62 59 72 100 90 81 78 78 84 83 71 70 66 70 89 95 95 82 83 90 94 98 100 100 98 100 100 100 100 100 98 100
44 47 50 52 38 36 53 62 63 72 76 65 60 55 56 68 86 71 62 65 57 51 58 66 74 80 75 68 75 87 92 81 67 73 82 90 100 100 100 100 100 100 100 100 100 100 100 100 100 100 100 100 100 97
58 61 76 84 82 82 93 82 75 78 65 66 69 57 56 67 87 71 71 60 61 62 70 80 82 73 78 82 90 100 100 91 82 78 76 84 95 100 100 100 100 100 100 100 100 100 100 100 100 100 100 100 92 81
94 96 94 90 87 90 72 73 71 66 75 78 84 83 75 69 70 88 85 64 58 66 75 83 76 69 75 84 91 98 100 100 100 100 100 100 100 100 100 100 100 88 66 55 73 100 100 100 99 100 85 82 90 86
96 93 100 100 100 100 100 98 99 95 97 91 84 86 99 95 88 79 75 64 64 72 83 78 80 91 98 100 100 99 95 96 100 100 100 99 100 72 26 19 18 20 23 30 38 81 100 96 89 76 64 67 64 57
100 100 98 83 84 90 99 100 87 77 79 83 94 100 100 100 90 76 76 67 65 82 91 87 90 100 100 100 100 100 100 100 98 96 100 85 46 27 15 14 16 18 21 27 60 82 86 66 42 44 43 39 36 36

GFSWCAN_500_rhum_162.txt.gz
RH
85 82 84 86 77 76 77 77 76 75 67 64 62 65 64 61 61 54 56 54 52 56 63 63 61 58 54 55 54 50 55 58 48 43 40 40 31 32 30 30 31 33 35 34 35 36 29 34 40 47 53 55 64 69
86 83 84 88 85 92 89 93 88 88 81 83 84 77 74 75 69 64 64 65 64 64 68 70 75 78 71 69 64 56 66 65 55 54 46 42 39 31 30 30 35 35 36 36 36 38 41 43 38 37 47 59 68 70
90 86 88 78 84 91 92 98 97 98 91 84 82 84 82 82 78 70 69 70 67 58 66 69 79 81 79 82 75 61 66 68 59 61 55 52 44 40 44 42 43 41 41 40 42 44 54 48 41 42 46 50 53 60
93 89 87 91 92 94 95 95 98 100 100 99 100 97 95 95 91 82 84 84 80 72 59 67 85 78 81 83 78 67 67 66 62 60 58 53 53 52 48 48 41 42 42 44 38 39 38 33 34 39 53 55 62 67
89 96 98 100 100 99 100 100 100 100 100 98 98 98 95 99 100 94 92 83 89 88 80 64 69 81 81 82 78 76 74 71 68 63 61 56 56 63 55 47 38 40 35 32 25 29 26 19 17 17 23 35 42 53
90 90 93 94 98 97 98 100 100 100 100 99 98 100 100 99 97 93 89 84 82 80 77 67 61 58 72 79 78 86 85 80 81 75 65 61 67 55 47 43 36 22 14 12 10 11 11 8 10 10 22 33 37 53
100 99 96 96 96 93 91 96 96 97 96 94 92 94 96 95 90 88 82 84 85 85 79 65 53 50 59 73 86 89 86 79 78 69 59 47 32 18 19 20 10 9 9 7 6 5 5 8 8 14 22 20 25 23
100 100 100 100 100 100 98 96 97 94 92 94 94 96 97 92 86 85 88 86 83 78 73 62 54 60 69 71 79 78 78 79 74 66 60 51 40 26 30 24 20 17 13 10 7 7 5 5 5 6 7 10 12 18
100 100 100 100 100 100 100 100 100 100 100 100 100 100 100 100 100 100 100 96 90 93 84 77 85 90 83 83 81 80 78 78 68 59 48 39 32 21 15 12 9 6 6 7 6 6 6 6 6 8 10 13 17 22
100 100 100 100 100 100 100 100 100 100 100 100 100 92 80 71 64 71 84 88 88 84 84 85 74 53 50 41 37 34 29 25 18 14 9 7 5 8 7 7 6 6 9 9 11 8 7 7 9 12 18 24 22 28
97 100 100 99 100 100 100 99 100 100 96 98 89 92 96 96 95 95 92 83 74 70 62 54 42 28 15 9 6 5 5 5 4 5 6 4 5 9 8 9 10 13 15 15 14 14 15 13 14 16 19 31 45 52
90 86 95 97 99 100 100 100 100 100 100 98 99 96 93 85 78 68 72 59 49 38 26 9 6 5 4 4 5 5 6 6 7 8 8 8 14 12 11 11 13 13 13 13 13 14 15 16 19 22 24 29 40 43
10 11 14 15 29 59 81 87 90 86 76 76 84 90 93 84 74 71 59 43 18 9 6 5 5 6 6 7 8 9 9 11 13 18 18 21 16 14 14 16 18 19 21 20 20 24 26 30 39 46 41 39 38 38
4 5 5 5 5 5 5 5 5 8 11 15 7 6 6 7 8 5 6 6 7 7 6 6 6 6 7 8 10 10 21 22 25 25 26 23 24 22 24 25 25 25 24 22 19 18 20 22 23 22 22 22 23 22
5 5 5 5 4 4 4 4 4 4 4 4 4 4 4 4 7 8 6 6 6 8 10 13 14 15 16 16 19 23 28 35 34 46 48 48 43 36 35 33 29 29 27 22 19 14 13 15 17 17 20 22 26 30
12 10 7 8 12 13 24 36 30 18 8 8 6 5 8 12 12 15 19 16 13 17 25 36 36 31 36 34 34 40 43 44 61 66 59 48 43 41 38 43 48 40 26 19 18 16 16 16 16 16 15 18 26 27
21 15 18 18 18 57 100 100 96 56 48 18 10 25 36 22 27 27 28 35 46 58 52 49 46 55 48 48 43 48 62 66 70 75 64 56 56 73 65 66 64 45 37 31 30 27 24 22 20 19 21 31 38 36
23 24 25 22 28 85 100 100 96 99 42 21 49 93 99 77 64 65 74 73 73 72 73 70 69 61 63 67 68 76 80 73 81 84 60 63 70 84 89 71 71 60 52 45 38 33 30 27 27 30 35 41 50 52
57 41 28 25 53 99 99 95 100 100 73 72 95 100 100 86 88 91 91 90 87 80 78 70 69 52 74 84 78 73 87 98 86 69 55 58 66 58 59 84 70 51 45 41 39 37 30 30 31 34 41 54 54 52
75 53 38 29 58 100 100 96 92 84 78 99 100 100 99 91 100 100 100 96 91 81 76 73 83 76 68 64 60 57 85 91 70 52 44 55 58 57 55 49 45 44 45 45 44 41 38 37 46 54 57 65 75 67
96 76 41 80 100 100 100 91 58 78 94 100 100 100 98 100 100 100 100 96 83 72 66 55 70 86 86 85 88 84 77 82 64 44 44 43 50 40 39 42 47 48 49 51 51 51 52 41 40 45 49 56 67 63
100 65 100 100 100 100 100 73 80 79 98 100 100 100 100 100 100 100 100 100 86 78 83 92 84 74 74 68 62 55 52 53 50 52 50 43 44 48 48 56 64 61 58 53 50 49 43 42 42 44 47 51 57 62
100 100 100 100 100 100 89 76 75 93 97 95 98 95 87 87 87 89 88 80 74 62 60 69 71 54 38 32 32 37 40 41 39 37 37 48 56 69 82 85 95 92 68 57 62 53 49 49 48 48 51 56 59 60
100 100 100 100 100 95 67 72 79 57 54 63 68 68 64 59 58 60 56 45 49 68 51 33 26 28 31 36 37 42 49 50 43 53 66 77 77 70 76 88 100 95 78 46 41 39 38 41 48 53 56 58 69 81
100 98 99 91 71 50 58 73 84 97 86 73 66 65 51 62 70 46 39 55 33 27 32 40 42 40 39 43 48 53 62 57 56 56 67 80 64 61 74 87 85 96 96 69 70 74 80 82 82 85 88 94 99 100
94 94 75 86 80 72 58 50 55 63 80 89 78 80 76 64 48 44 55 37 38 41 47 50 50 49 56 62 53 54 53 58 57 65 82 84 93 91 83 85 88 98 100 95 90 87 91 99 100 100 100 100 100 100
75 56 53 69 77 68 54 48 52 76 84 98 91 78 65 43 44 55 59 58 66 60 52 56 57 53 56 60 58 56 60 61 70 76 86 100 100 100 89 76 71 75 80 84 87 89 87 89 96 100 100 100 100 100
93 98 100 100 62 43 67 83 91 89 80 73 60 49 42 46 63 77 79 74 67 65 65 63 60 62 58 59 58 57 61 69 77 88 99 100 100 98 97 99 99 99 99 99 99 100 100 100 100 100 100 100 100 100
100 100 100 100 100 100 98 98 83 67 57 43 46 64 74 84 85 81 74 73 71 60 66 80 83 73 68 61 54 58 71 76 84 96 100 100 100 100 100 100 100 98 58 30 28 27 27 26 25 30 55 88 98 100
75 77 65 52 47 49 48 42 41 40 48 84 86 78 74 81 83 68 70 70 64 67 77 75 65 63 57 49 60 93 100 94 89 88 79 87 95 100 100 98 92 53 23 25 31 29 24 26 28 32 38 68 100 100
48 58 55 52 43 38 40 65 89 100 97 90 88 74 62 56 64 69 79 78 70 65 65 66 66 59 54 61 87 100 100 100 100 100 100 100 100 100 99 100 47 22 34 56 38 34 34 40 54 77 92 93 87 71
36 36 44 78 93 88 85 72 65 66 73 84 94 99 100 100 90 78 80 75 74 71 73 75 69 61 66 89 100 100 100 100 100 100 100 100 100 100 100 76 21 20 38 69 72 71 70 70 65 55 42 40 35 33
90 83 80 76 81 87 87 89 87 87 100 100 100 100 100 100 100 98 91 84 77 75 74 69 63 78 88 99 100 100 100 100 100 97 98 100 100 100 100 48 18 19 23 32 30 26 26 27 27 27 29 29 29 30